Location: Mlada Boleslav
(50.4170°N, 14.9000°E)
Time: 03:24:17
(UTC+01:00)

ISS - Visible Passes

Search period start: 22 January 2019 00:00
Search period end: 01 February 2019 00:00
Orbit: 404 x 410 km, 51.6° (Epoch: 22 January)

Date Brightness Start Highest point End Pass type
(mag) Time Alt. Az. Time Alt. Az. Time Alt. Az.
23 Jan -1.8 18:39:23 10° SSW 18:41:05 19° SSE 18:41:05 19° SSE visible
24 Jan -1.6 17:49:04 10° S 17:50:52 14° SE 17:52:04 12° ESE visible
24 Jan -1.3 19:23:38 10° SW 19:24:48 20° SW 19:24:48 20° SW visible
25 Jan -3.1 18:32:29 10° SW 18:35:36 39° SSE 18:35:43 39° SE visible
26 Jan -2.4 17:41:33 10° SSW 17:44:22 26° SE 17:46:33 14° E visible
26 Jan -2.1 19:17:20 10° WSW 19:19:16 33° WSW 19:19:16 33° WSW visible
27 Jan -3.8 18:26:00 10° WSW 18:29:17 67° SSE 18:30:03 46° E visible
27 Jan -0.3 20:02:34 10° W 20:02:46 11° W 20:02:46 11° W visible
28 Jan -3.2 17:34:46 10° SW 17:37:57 46° SSE 17:40:47 12° E visible
28 Jan -2.6 19:11:07 10° W 19:13:30 43° W 19:13:30 43° W visible
29 Jan -3.9 18:19:41 10° WSW 18:23:00 85° N 18:24:13 36° ENE visible
29 Jan -0.6 19:56:21 10° WNW 19:56:55 14° WNW 19:56:55 14° WNW visible
30 Jan -3.7 17:28:17 10° WSW 17:31:35 77° SSE 17:34:53 10° ENE visible
30 Jan -3.1 19:04:54 10° W 19:07:36 53° WNW 19:07:36 53° WNW visible
31 Jan -3.8 18:13:25 10° W 18:16:43 70° N 18:18:17 28° ENE visible
31 Jan -0.9 19:50:03 10° WNW 19:50:59 18° WNW 19:50:59 18° WNW visible
